SCP
0 0 0 0 0 0 0 0 0 0 0 1 1 1 1 1 0 0 0 0 0 1 1 1 2 2 3 3 4 5 4 3 3 4 4 5 5 5 4 4 3 2 1 1
0 0 0 0 0 0 1 1 0 0 0 1 1 1 0 0 0 0 0 0 0 1 1 2 2 2 3 3 3 4 4 3 3 3 4 5 6 6 5 4 3 2 1 1
0 0 0 0 0 0 0 0 0 0 0 0 0 0 0 0 0 0 0 0 0 0 1 1 2 2 3 3 3 4 4 3 3 3 3 4 6 6 6 4 3 2 1 1
0 0 0 0 0 0 0 0 0 0 0 0 0 0 0 0 0 0 0 0 0 0 1 1 1 2 3 3 3 4 3 3 2 3 3 4 5 5 5 5 4 2 2 1
0 0 0 0 0 0 0 0 0 0 0 0 0 0 0 0 0 0 0 0 0 0 1 1 1 2 3 3 4 4 3 3 2 2 3 3 3 4 5 5 4 3 2 1
0 0 0 0 0 0 0 0 0 0 0 0 0 0 0 0 0 0 0 0 0 0 0 1 1 2 3 3 3 3 3 3 2 2 2 2 2 3 5 5 4 3 2 2
0 0 0 0 0 0 0 0 0 0 0 0 0 0 0 0 0 0 0 0 0 0 0 0 1 2 3 3 3 3 3 3 3 2 2 2 2 3 4 4 4 3 3 2
0 0 0 0 0 0 0 0 0 0 0 0 0 0 0 0 0 0 0 0 0 0 0 0 0 1 2 2 3 3 3 3 3 2 2 2 2 2 3 3 4 3 3 3
0 0 0 0 0 0 0 0 0 0 0 0 0 0 0 0 0 0 0 0 0 0 0 0 0 1 1 2 2 2 3 3 3 2 2 2 2 2 2 2 2 3 3 3
0 0 0 0 0 0 0 0 0 0 0 0 0 0 0 0 0 0 0 0 0 0 0 0 0 1 1 2 2 2 2 3 3 2 2 1 1 1 1 1 1 2 3 3
0 0 0 0 0 0 0 0 0 0 0 0 0 0 0 0 0 0 0 0 0 0 0 0 0 1 1 2 2 2 2 2 2 2 1 1 1 1 1 1 1 2 3 3
0 0 0 0 0 0 0 0 0 0 0 0 0 0 0 0 0 0 0 1 1 1 1 1 1 1 1 2 2 1 1 1 1 1 1 1 1 1 1 1 1 2 2 2
0 0 0 0 0 0 0 0 0 0 0 0 0 0 0 0 0 0 0 0 1 1 1 1 1 1 1 1 1 1 1 0 0 0 1 0 0 1 1 1 1 2 2 2
0 0 0 0 0 0 0 0 0 0 0 0 0 0 0 0 0 0 0 0 0 1 1 0 0 0 1 1 1 1 0 0 0 0 0 0 0 0 1 1 1 2 1 1
0 0 0 0 0 0 0 0 0 0 0 0 0 0 0 0 0 0 0 0 0 0 0 0 0 0 0 0 0 0 0 0 0 0 0 0 0 1 1 1 1 1 1 1
0 0 0 0 0 0 0 0 0 0 0 0 0 0 0 0 0 0 0 0 0 0 0 0 0 0 0 0 0 0 0 0 0 0 0 0 0 1 1 1 0 0 0 0
0 0 0 0 0 0 0 0 0 0 0 0 0 0 0 0 0 0 0 0 0 0 0 0 0 0 0 0 0 0 0 0 0 0 0 0 0 0 0 0 0 0 0 0
0 0 0 0 0 0 0 0 0 0 0 0 0 0 0 0 0 0 0 0 0 0 0 0 0 0 0 0 0 0 0 0 0 0 0 0 0 0 0 0 0 0 0 0
0 0 0 0 0 0 0 0 0 0 0 0 0 0 0 0 0 0 0 0 0 0 0 0 0 0 0 0 0 0 0 0 0 0 0 0 0 0 0 0 0 0 0 0
0 0 0 0 0 0 0 0 0 0 0 0 0 0 0 0 0 0 0 0 0 0 0 0 0 0 0 0 0 0 0 0 0 0 0 0 0 0 0 0 0 0 0 0
0 0 0 0 0 0 0 0 0 0 0 0 0 0 0 0 0 0 0 0 0 0 0 0 0 0 0 0 0 0 0 0 0 0 0 0 0 0 0 0 0 0 0 0
0 0 0 0 0 0 0 0 0 0 0 0 0 0 0 0 0 0 0 0 0 0 0 0 0 0 0 0 0 0 0 0 0 0 0 0 0 0 0 0 0 0 0 0
0 0 0 0 0 0 0 0 0 0 0 0 0 0 0 0 0 0 0 0 0 0 0 0 0 0 0 0 0 0 0 0 0 0 0 0 0 0 0 0 0 0 0 0
0 0 0 0 0 0 0 0 0 0 0 0 0 0 0 0 0 0 0 0 0 0 0 0 0 0 0 0 0 0 0 0 0 0 0 0 0 0 0 0 0 0 0 0
0 0 0 0 0 0 0 0 0 0 0 0 0 0 0 0 0 0 0 0 0 0 0 0 0 0 0 0 0 0 0 0 0 0 0 0 0 0 0 0 0 0 0 0
0 0 0 0 0 0 0 0 0 0 0 0 0 0 0 0 0 0 0 0 0 0 0 0 0 0 0 0 0 0 0 0 0 0 0 0 0 0 0 0 0 0 0 0
Wind_Speed
2 2 2 3 4 4 5 5 6 5 3 4 6 6 6 4 3 3 4 4 4 4 4 4 3 4 4 4 5 6 7 7 7 6 6 6 6 6 6 5 7 8 7 8
3 1 2 3 3 4 5 6 5 4 3 4 5 7 5 4 3 4 4 4 4 4 3 3 3 2 3 4 4 5 6 7 7 7 6 5 5 5 5 5 6 8 8 8
2 1 2 2 2 4 5 6 5 5 4 4 5 7 5 5 4 3 3 4 4 4 4 3 3 3 3 4 4 4 6 6 7 7 5 5 4 4 4 6 5 6 7 8
0 2 2 3 3 3 4 4 5 5 5 4 5 6 6 5 5 4 4 4 4 4 4 3 3 3 4 4 4 5 5 6 6 7 7 9 8 7 7 6 6 7 7 7
0 1 2 2 3 3 3 4 5 5 5 5 6 7 5 4 6 5 5 4 4 4 4 4 4 4 4 4 4 4 4 5 5 7 8 9 8 7 5 6 7 7 7 7
1 2 2 3 4 2 2 2 2 4 4 6 7 8 6 5 6 6 5 4 5 5 5 4 4 4 3 3 3 3 4 5 5 6 7 8 9 8 8 7 7 6 5 6
2 1 1 2 2 0 1 2 2 3 5 5 4 7 6 2 3 4 5 5 5 5 5 5 5 5 4 4 3 3 4 4 5 5 6 7 7 9 9 8 7 7 5 5
2 1 2 2 2 2 2 2 2 3 4 3 4 7 3 1 2 3 4 5 6 6 6 5 5 5 4 5 4 4 4 4 5 5 5 5 6 5 5 7 6 7 5 5
2 1 2 3 3 2 1 2 2 3 3 5 5 4 4 1 2 4 5 5 6 7 7 6 6 5 5 5 4 4 4 4 5 5 5 5 5 5 5 6 6 5 5 5
2 2 3 3 1 1 2 1 2 3 4 5 5 6 4 3 4 5 6 7 8 8 8 7 6 5 5 4 4 4 4 4 4 4 4 3 5 4 4 4 5 5 5 5
1 2 2 1 1 2 1 1 2 2 3 4 5 3 2 3 4 5 7 7 8 8 8 7 7 6 5 3 2 2 3 3 3 4 4 4 4 4 4 4 5 5 5 5
1 2 2 3 2 3 3 2 3 3 3 4 5 3 3 2 3 5 7 7 7 8 7 7 7 6 5 4 3 2 2 2 2 3 3 3 3 4 4 4 4 5 6 5
0 1 2 1 3 1 2 2 2 3 3 5 6 5 2 5 6 7 9 9 8 8 8 7 7 6 5 5 4 3 2 1 1 2 3 3 4 4 4 4 4 4 5 5
1 2 4 5 4 3 5 5 5 5 5 6 9 10 8 8 9 9 10 10 9 8 8 8 7 7 6 6 5 4 3 2 0 1 2 3 3 3 4 4 4 4 4 5
1 3 4 6 6 7 8 9 8 9 9 9 9 11 11 9 9 9 9 9 9 9 9 9 8 8 7 7 6 5 4 2 1 1 1 2 2 3 3 4 4 4 4 4
1 2 3 5 6 7 9 10 9 9 10 11 11 11 7 6 6 7 8 8 8 9 9 9 8 8 8 7 6 5 4 3 1 1 1 2 3 3 3 3 3 4 4 4
2 2 3 4 5 6 8 6 6 6 6 7 8 7 5 5 6 7 7 7 8 8 9 8 8 8 7 7 6 5 4 3 1 1 1 2 2 3 3 3 3 3 3 4
4 3 2 3 3 6 1 1 3 6 7 7 8 7 6 7 7 6 5 7 8 8 8 8 8 8 7 7 5 5 4 2 1 1 1 2 2 3 3 3 3 2 2 3
4 4 3 2 4 8 4 2 2 4 7 4 5 6 6 6 6 4 4 6 7 8 7 7 7 7 7 6 5 4 3 2 1 1 1 2 2 3 2 2 2 2 2 2
2 3 3 3 5 7 1 2 0 3 6 2 3 5 5 5 5 4 5 7 7 7 6 7 6 6 6 6 5 4 3 2 1 1 1 1 2 2 2 2 2 2 2 3
3 3 5 6 6 8 1 1 2 5 3 1 4 5 4 5 6 6 6 6 6 6 6 6 6 5 5 5 5 4 3 3 2 2 2 1 1 2 2 2 2 2 2 3
6 5 6 5 7 7 3 3 5 4 3 3 4 5 5 6 6 6 5 5 6 6 6 6 5 5 5 5 4 4 4 4 3 2 2 2 1 1 2 2 2 2 3 3
7 6 4 7 6 2 4 5 5 4 5 5 5 5 6 6 6 5 5 5 5 5 5 5 5 5 5 5 4 3 3 3 3 2 2 2 2 2 2 2 2 2 2 2
5 4 5 7 9 7 7 8 7 6 6 6 5 6 5 6 6 5 5 4 4 5 4 4 4 4 5 5 4 3 3 2 2 2 2 2 2 2 2 1 1 1 2 2
6 7 6 9 8 8 7 8 8 6 6 5 5 5 5 6 5 5 4 4 4 4 4 4 3 4 4 5 4 4 3 2 2 2 1 1 1 1 1 1 1 0 1 1
7 9 8 8 6 5 6 5 6 6 6 6 5 5 5 5 5 5 4 4 3 3 3 3 3 4 4 4 4 4 3 2 1 1 1 1 1 1 1 1 1 2 1 1
Wind_Direction
101 149 187 214 222 240 225 240 244 252 263 265 248 261 279 275 289 297 295 284 278 271 270 273 269 251 225 216 216 214 204 197 189 185 187 186 184 184 185 187 184 184 182 182
140 190 263 252 221 221 224 236 247 260 269 258 259 269 277 270 269 282 300 301 292 292 291 288 279 263 233 219 221 216 204 199 197 193 192 191 184 183 183 182 185 185 185 186
152 304 282 237 214 217 228 230 240 245 277 236 258 257 239 257 259 286 299 300 302 294 283 279 275 267 250 231 226 224 207 198 199 193 182 173 172 174 182 185 185 186 186 187
176 299 257 238 241 245 244 247 248 232 239 238 233 253 236 246 257 278 290 294 300 297 292 285 276 268 255 243 235 230 211 198 198 191 190 188 189 191 195 191 185 183 185 185
114 318 263 253 282 281 276 284 258 226 227 247 234 245 246 229 246 266 279 286 295 297 293 288 279 265 252 245 236 230 208 197 199 199 197 200 201 198 188 184 182 181 180 183
342 312 298 297 298 273 292 244 226 218 222 238 232 234 246 219 241 255 270 288 301 306 300 294 289 275 257 252 240 227 205 199 198 200 200 202 200 195 186 188 185 183 180 181
19 29 5 315 314 49 0 220 207 208 213 231 211 232 244 243 274 272 279 293 308 313 304 301 296 288 276 260 242 224 213 205 201 199 202 203 200 197 193 190 191 188 185 185
353 12 16 351 327 303 285 256 251 247 240 248 224 236 248 280 310 308 301 311 323 323 317 308 299 290 280 264 245 225 217 213 202 200 202 204 199 193 193 195 195 195 191 186
332 327 353 332 320 284 244 216 293 281 276 262 234 249 247 244 313 328 330 335 337 336 331 323 312 301 290 274 253 235 221 213 204 201 196 195 195 193 189 191 194 192 186 179
312 281 316 320 263 62 294 264 233 221 244 251 247 244 242 246 306 327 335 338 338 336 335 331 321 314 308 290 270 248 226 213 206 201 196 193 194 189 180 179 186 182 179 174
295 269 303 300 255 264 193 215 259 244 258 266 260 258 21 282 307 318 330 337 338 335 335 334 330 325 321 319 301 281 248 219 205 201 194 184 181 177 172 176 183 179 173 174
336 287 281 282 294 297 257 252 243 250 250 266 270 279 47 344 349 341 336 340 340 337 336 337 336 335 339 340 336 327 290 243 205 192 186 174 166 166 169 172 178 177 176 180
291 234 271 222 176 176 263 290 272 273 255 248 253 263 62 350 345 344 341 341 340 339 341 344 345 345 346 345 347 344 320 301 223 187 174 164 162 167 171 168 168 170 172 176
268 231 248 262 296 286 273 279 273 253 246 252 253 272 293 316 326 334 336 337 339 341 343 347 346 346 348 348 350 348 341 339 299 169 160 159 163 169 166 163 165 166 167 176
265 240 246 267 276 275 275 276 269 252 251 255 267 275 289 307 314 321 327 333 338 342 344 346 347 346 349 351 349 346 345 347 355 116 126 154 157 156 149 149 155 155 160 171
303 245 256 266 263 273 274 272 265 258 257 255 266 274 294 310 315 322 328 332 337 339 340 341 345 345 345 345 341 339 340 346 3 86 105 129 132 128 135 143 145 144 150 156
210 210 246 269 295 285 264 250 239 245 247 248 257 275 309 306 308 316 321 327 334 334 334 336 337 337 336 334 332 332 333 342 4 64 98 116 119 120 124 130 136 143 148 149
206 204 237 280 290 254 271 101 246 253 255 251 266 284 290 290 295 302 311 325 330 330 330 330 331 332 332 333 338 337 332 341 5 87 114 117 119 117 119 129 137 141 146 149
223 210 220 237 260 273 263 214 228 248 267 249 259 279 297 307 290 284 324 327 323 323 323 324 327 328 330 334 338 337 343 354 22 67 92 106 121 124 127 133 144 148 145 141
166 211 224 223 248 258 297 104 263 249 261 203 252 280 303 303 284 304 331 322 321 325 327 329 330 332 336 338 335 336 347 358 14 18 50 85 116 127 133 142 146 142 137 137
180 198 219 230 247 265 297 175 192 235 294 354 270 278 280 273 285 311 314 316 320 324 328 332 334 335 336 338 340 341 346 353 358 20 48 56 81 114 129 135 136 132 129 129
200 199 205 207 229 252 143 167 221 274 336 285 279 277 271 273 286 297 303 311 318 323 328 334 335 337 339 342 344 347 352 358 10 35 54 61 69 86 114 127 129 135 139 138
218 218 216 215 235 318 191 229 265 285 272 279 279 280 271 272 279 288 295 305 312 321 326 329 332 335 341 349 353 1 1 8 25 45 56 67 75 81 97 117 133 142 148 148
220 213 232 251 256 259 257 259 266 267 271 280 279 273 265 269 276 282 291 301 310 319 324 326 332 337 341 348 355 358 357 11 37 52 50 59 73 72 76 91 121 152 160 161
222 191 222 249 266 276 258 247 256 264 270 277 278 269 261 262 268 273 283 292 301 312 317 321 326 330 334 342 349 353 358 16 36 47 54 63 75 83 78 71 57 149 211 200
201 200 211 240 240 243 266 269 256 251 255 260 264 268 264 258 261 268 275 283 291 299 309 317 324 327 332 340 345 347 350 2 30 43 46 63 101 107 116 108 64 45 47 55